Weather History for KUDG - October, 2012

Change the Weather History Date:

Tuesday, October 2, 2012

  Actual Average (KFLO) Record (KFLO)
Temperature  
Mean Temperature 80 °F 69 °F  
Max Temperature 87 °F 80 °F 95 °F (1986)
Min Temperature 73 °F 58 °F 41 °F (1966)
Degree Days  
Heating Degree Days 0 1  
Month to date heating degree days 2  
Since 1 July heating degree days 11  
Cooling Degree Days 15 5  
Month to date cooling degree days 10  
Year to date cooling degree days 1966  
Growing Degree Days 30 (Base 50)    
Moisture  
Dew Point 72 °F    
Average Humidity 84    
Maximum Humidity 94    
Minimum Humidity 55    
Precipitation  
Precipitation 0.12 in 0.12 in 2.32 in (1989)
Month to date precipitation 0.24  
Year to date precipitation 34.39  
Sea Level Pressure  
Sea Level Pressure 29.87 in    
Wind  
Wind Speed 8 mph (SSE)    
Max Wind Speed 16 mph    
Max Gust Speed 23 mph    
Visibility 9 miles    
Events Thunderstorm    
T = Trace of Precipitation, MM = Missing Value Source: NWS Daily Summary

Daily Weather History Graph

Daily Weather History Graph

Search for Another Location

Airport or City:

Trip Planner

Search our weather history database for the weather conditions in past years. The results will help you decide how hot, cold, wet, or windy it might be!

Date:

Astronomy

Oct. 02, 2012 Rise Set
Actual Time 7:15 AM EDT 7:01 PM EDT
Civil Twilight 6:50 AM EDT 7:26 PM EDT
Nautical Twilight 6:21 AM EDT 7:55 PM EDT
Astronomical Twilight 5:51 AM EDT 8:25 PM EDT
Moon 8:22 PM EDT (10/2) 9:32 AM EDT (10/2)
Length of Visible Light 12h 36m
Length of Day
11h 46m
Waning Gibbous, 94% of the Moon is Illuminated
Oct 2
Waning Gibbous
Oct 8
Last Quarter
Oct 15
New
Oct 21
First Quarter
Oct 29
Full

Hourly Weather History & Observations

Time (EDT) Temp. Heat Index Dew Point Humidity Pressure Visibility Wind Dir Wind Speed Gust Speed Precip Events Conditions
12:15 AM 75.2 °F - 71.6 °F 89% 29.83 in 10.0 mi SE 8.1 mph - N/A   Overcast
12:35 AM 75.2 °F - 73.4 °F 94% 29.83 in 10.0 mi SE 9.2 mph - N/A   Overcast
12:55 AM 75.2 °F - 71.6 °F 89% 29.82 in 8.0 mi SE 8.1 mph - N/A   Overcast
1:15 AM 75.2 °F - 73.4 °F 94% 29.82 in 9.0 mi SE 8.1 mph - N/A   Overcast
1:35 AM 75.2 °F - 71.6 °F 89% 29.82 in 8.0 mi ESE 9.2 mph - N/A   Overcast
1:55 AM 75.2 °F - 73.4 °F 94% 29.81 in 8.0 mi SE 8.1 mph - N/A   Overcast
2:15 AM 75.2 °F - 73.4 °F 94% 29.81 in 7.0 mi SE 6.9 mph - N/A   Overcast
2:35 AM 77.0 °F - 73.4 °F 89% 29.81 in 8.0 mi SE 6.9 mph - N/A   Overcast
2:55 AM 75.2 °F - 73.4 °F 94% 29.80 in 10.0 mi SE 5.8 mph - N/A   Overcast
3:15 AM 75.2 °F - 71.6 °F 89% 29.80 in 10.0 mi SSE 6.9 mph - N/A   Overcast
3:35 AM 75.2 °F - 71.6 °F 89% 29.80 in 10.0 mi SE 9.2 mph - N/A   Overcast
3:55 AM 75.2 °F - 71.6 °F 89% 29.80 in 10.0 mi SE 6.9 mph - N/A   Mostly Cloudy
4:15 AM 75.2 °F - 71.6 °F 89% 29.80 in 8.0 mi SE 5.8 mph - N/A   Mostly Cloudy
4:35 AM 75.2 °F - 73.4 °F 94% 29.79 in 8.0 mi SE 8.1 mph - N/A   Overcast
4:55 AM 75.2 °F - 73.4 °F 94% 29.79 in 8.0 mi SE 6.9 mph - N/A   Overcast
5:15 AM 75.2 °F - 73.4 °F 94% 29.79 in 9.0 mi SSE 8.1 mph - N/A   Overcast
5:35 AM 75.2 °F - 73.4 °F 94% 29.79 in 10.0 mi SE 9.2 mph - N/A   Mostly Cloudy
5:55 AM 75.2 °F - 73.4 °F 94% 29.79 in 10.0 mi SE 9.2 mph - N/A   Overcast
6:15 AM 77.0 °F - 73.4 °F 89% 29.80 in 10.0 mi SSE 6.9 mph - N/A   Overcast
6:35 AM 77.0 °F - 73.4 °F 89% 29.80 in 10.0 mi SSE 8.1 mph - N/A   Overcast
6:55 AM 75.2 °F - 73.4 °F 94% 29.81 in 10.0 mi SSE 6.9 mph - N/A   Overcast
7:15 AM 75.2 °F - 73.4 °F 94% 29.82 in 10.0 mi SSE 6.9 mph - N/A   Overcast
7:35 AM 75.2 °F - 73.4 °F 94% 29.82 in 9.0 mi SSE 5.8 mph - N/A   Overcast
7:55 AM 75.2 °F - 73.4 °F 94% 29.82 in 10.0 mi SE 5.8 mph - N/A   Overcast
8:15 AM 75.2 °F - 73.4 °F 94% 29.84 in 10.0 mi SSE 4.6 mph - N/A   Overcast
8:35 AM 77.0 °F - 73.4 °F 89% 29.85 in 10.0 mi South 6.9 mph - N/A   Overcast
8:55 AM 77.0 °F - 73.4 °F 89% 29.86 in 10.0 mi SSE 6.9 mph - N/A   Overcast
9:15 AM 78.8 °F - 73.4 °F 83% 29.86 in 10.0 mi South 8.1 mph - N/A   Mostly Cloudy
9:35 AM 78.8 °F - 73.4 °F 83% 29.86 in 10.0 mi South 9.2 mph - N/A   Scattered Clouds
9:55 AM 80.6 °F 85.4 °F 73.4 °F 79% 29.86 in 10.0 mi South 10.4 mph - N/A   Partly Cloudy
10:15 AM 80.6 °F 85.4 °F 73.4 °F 79% 29.86 in 10.0 mi South 13.8 mph - N/A   Scattered Clouds
10:35 AM 82.4 °F 88.2 °F 73.4 °F 74% 29.86 in 10.0 mi SSW 10.4 mph - N/A   Mostly Cloudy
10:55 AM 82.4 °F 88.2 °F 73.4 °F 74% 29.86 in 10.0 mi SSW 12.7 mph - N/A   Mostly Cloudy
11:15 AM 82.4 °F 87.2 °F 71.6 °F 70% 29.86 in 10.0 mi SW 11.5 mph - N/A   Mostly Cloudy
11:35 AM 82.4 °F 87.2 °F 71.6 °F 70% 29.87 in 10.0 mi WSW 12.7 mph - N/A   Mostly Cloudy
11:55 AM 84.2 °F 89.6 °F 71.6 °F 66% 29.87 in 10.0 mi South 13.8 mph 20.7 mph N/A   Scattered Clouds
12:15 PM 84.2 °F 88.4 °F 69.8 °F 62% 29.87 in 10.0 mi SSW 15.0 mph 19.6 mph N/A   Partly Cloudy
12:35 PM 84.2 °F 89.6 °F 71.6 °F 66% 29.87 in 10.0 mi SW 9.2 mph - N/A   Mostly Cloudy
12:55 PM 86.0 °F 91.8 °F 71.6 °F 62% 29.86 in 10.0 mi South 12.7 mph 19.6 mph N/A   Mostly Cloudy
1:15 PM 87.8 °F 93.8 °F 71.6 °F 58% 29.85 in 10.0 mi SSW 10.4 mph - N/A   Scattered Clouds
1:35 PM 87.8 °F 93.8 °F 71.6 °F 58% 29.85 in 10.0 mi South 10.4 mph 17.3 mph N/A   Partly Cloudy
1:55 PM 87.8 °F 93.8 °F 71.6 °F 58% 29.85 in 10.0 mi South 16.1 mph 19.6 mph N/A   Mostly Cloudy
2:15 PM 87.8 °F 93.8 °F 71.6 °F 58% 29.85 in 10.0 mi South 13.8 mph 19.6 mph N/A   Scattered Clouds
2:35 PM 87.8 °F 92.6 °F 69.8 °F 55% 29.85 in 10.0 mi South 12.7 mph 16.1 mph N/A   Scattered Clouds
2:55 PM 84.2 °F 88.4 °F 69.8 °F 62% 29.85 in 10.0 mi South 8.1 mph - N/A   Mostly Cloudy
3:15 PM 82.4 °F 87.2 °F 71.6 °F 70% 29.86 in 10.0 mi SW 6.9 mph - N/A Thunderstorm Mostly Cloudy
3:35 PM 77.0 °F - 71.6 °F 83% 29.87 in 5.0 mi South 10.4 mph 23.0 mph 0.07 in Thunderstorm Thunderstorm
3:55 PM 77.0 °F - 73.4 °F 89% 29.86 in 10.0 mi South 4.6 mph - 0.08 in   Mostly Cloudy
4:15 PM 78.8 °F - 73.4 °F 83% 29.87 in 10.0 mi SSW 4.6 mph - N/A   Scattered Clouds
4:35 PM 78.8 °F - 73.4 °F 83% 29.87 in 10.0 mi SSE 5.8 mph - N/A   Scattered Clouds
4:55 PM 78.8 °F - 73.4 °F 83% 29.88 in 10.0 mi SSE 5.8 mph - N/A   Mostly Cloudy
5:15 PM 78.8 °F - 73.4 °F 83% 29.89 in 10.0 mi South 6.9 mph - N/A   Scattered Clouds
5:55 PM 77.0 °F - 73.4 °F 89% 29.90 in 8.0 mi South 6.9 mph - 0.02 in   Mostly Cloudy
6:15 PM 77.0 °F - 71.6 °F 83% 29.90 in 7.0 mi South 9.2 mph - 0.02 in   Mostly Cloudy
6:35 PM 75.2 °F - 71.6 °F 89% 29.91 in 10.0 mi South 6.9 mph - 0.02 in   Mostly Cloudy
6:55 PM 75.2 °F - 71.6 °F 89% 29.92 in 10.0 mi Calm Calm - 0.02 in   Mostly Cloudy
7:15 PM 73.4 °F - 71.6 °F 94% 29.92 in 10.0 mi SE 3.5 mph - N/A   Scattered Clouds
7:35 PM 75.2 °F - 71.6 °F 89% 29.93 in 10.0 mi SE 5.8 mph - N/A   Clear
7:55 PM 75.2 °F - 71.6 °F 89% 29.93 in 10.0 mi SE 5.8 mph - N/A   Clear
8:15 PM 75.2 °F - 71.6 °F 89% 29.94 in 9.0 mi SSE 5.8 mph - N/A   Clear
8:35 PM 75.2 °F - 71.6 °F 89% 29.94 in 8.0 mi South 3.5 mph - N/A   Clear
8:55 PM 73.4 °F - 71.6 °F 94% 29.94 in 8.0 mi Calm Calm - N/A   Clear
9:15 PM 73.4 °F - 71.6 °F 94% 29.95 in 6.0 mi SE 3.5 mph - N/A   Clear
9:35 PM 73.4 °F - 71.6 °F 94% 29.96 in 5.0 mi Calm Calm - N/A   Clear
9:55 PM 73.4 °F - 71.6 °F 94% 29.96 in 5.0 mi SSE 3.5 mph - N/A   Clear
10:15 PM 73.4 °F - 71.6 °F 94% 29.97 in 6.0 mi Calm Calm - N/A   Clear
10:35 PM 73.4 °F - 71.6 °F 94% 29.98 in 5.0 mi Calm Calm - N/A   Clear
10:55 PM 73.4 °F - 71.6 °F 94% 29.98 in 5.0 mi Calm Calm - N/A   Scattered Clouds
11:15 PM 75.2 °F - 71.6 °F 89% 29.99 in 4.0 mi Calm Calm - N/A   Overcast
11:35 PM 75.2 °F - 71.6 °F 89% 29.99 in 5.0 mi SE 3.5 mph - N/A   Overcast
11:55 PM 75.2 °F - 71.6 °F 89% 30.00 in 4.0 mi SSE 3.5 mph - N/A   Overcast